This is the latest recevied weather packets stored in our database for station/object KG5WBN. If no packets are shown the sender has not sent any weather packets the latest 10 day(s).
| Time | Temp. | Humidity | Pressure | Rain* | Wind** | Luminosity | Snow |
|---|---|---|---|---|---|---|---|
| 1788573188 | 27.78° C | 67% | 1012.5 hPa | 0 mm | - | 0 W/m² | - |
| 1788572887 | 27.78° C | 69% | 1012.5 hPa | 0 mm | - | 0 W/m² | - |
| 1788572583 | 27.78° C | 69% | 1012.5 hPa | 0 mm | - | 0 W/m² | - |
| 1788572278 | 27.78° C | 69% | 1012.5 hPa | 0 mm | - | 0 W/m² | - |
| 1788571974 | 27.78° C | 70% | 1012.5 hPa | 0 mm | - | 0 W/m² | - |
| 1788571669 | 27.78° C | 73% | 1012.5 hPa | 0 mm | - | 0 W/m² | - |
| 1788571365 | 27.78° C | 74% | 1012.5 hPa | 0 mm | - | 0 W/m² | - |
| 1788571062 | 28.33° C | 74% | 1012.5 hPa | 0 mm | - | 0 W/m² | - |
| 1788570757 | 28.33° C | 74% | 1012.5 hPa | 0 mm | - | 0 W/m² | - |
| 1788570452 | 28.33° C | 74% | 1012.9 hPa | 0 mm | - | 0 W/m² | - |
| 1788570147 | 28.33° C | 74% | 1012.5 hPa | 0 mm | - | 0 W/m² | - |
| 1788569844 | 28.33° C | 74% | 1012.5 hPa | 0 mm | - | 0 W/m² | - |
| 1788569539 | 28.33° C | 74% | 1012.5 hPa | 0 mm | - | 0 W/m² | - |
| 1788569239 | 28.33° C | 74% | 1012.5 hPa | 0 mm | - | 0 W/m² | - |
| 1788568935 | 28.33° C | 73% | 1012.5 hPa | 0 mm | - | 0 W/m² | - |
| 1788568634 | 28.33° C | 73% | 1012.2 hPa | 0 mm | - | 0 W/m² | - |
| 1788568331 | 28.33° C | 71% | 1012.2 hPa | 0 mm | - | 0 W/m² | - |
| 1788568026 | 28.33° C | 61% | 1012.2 hPa | 0 mm | - | 0 W/m² | - |
| 1788567726 | 28.33° C | 62% | 1012.5 hPa | 0 mm | - | 0 W/m² | - |
| 1788567421 | 28.89° C | 58% | 1012.9 hPa | 0 mm | - | 1 W/m² | - |
| 1788567120 | 28.89° C | 57% | 1012.5 hPa | 0 mm | - | 2 W/m² | - |
| 1788566815 | 28.89° C | 55% | 1012.5 hPa | 0 mm | - | 6 W/m² | - |
| 1788566511 | 28.89° C | 55% | 1012.5 hPa | 0 mm | - | 9 W/m² | - |
| 1788566211 | 29.44° C | 54% | 1012.5 hPa | 0 mm | - | 11 W/m² | - |
| 1788565911 | 29.44° C | 54% | 1012.5 hPa | 0 mm | - | 19 W/m² | - |
* Rain latest hour (hover to see other rain measurements)
** Current wind speed in m/s (hover to see current wind gust speed)